{"data":{"norad_id":68333,"epoch":"2026-09-19T22:50:14.961120Z","epoch_age_seconds":95791,"freshness":"FRESH","line1":"1 68333U 26059N   26262.95156205  .00027425  00000+0  81987-3 0  9991","line2":"2 68333  53.1584 158.4447 0001979  84.7181 275.4047 15.34399149 28028","mean_motion":15.34399149,"eccentricity":0.0001979,"inclination_deg":53.1584,"raan_deg":158.4447,"arg_perigee_deg":84.7181,"mean_anomaly_deg":275.4047,"bstar":0.00081987,"rev_number":2802,"period_min":93.847810130661,"perigee_km":461.35196677552,"apogee_km":464.05957234371,"semimajor_km":6840.8427695596,"source":"CELESTRAK","updated_at":"2026-09-20T09:00:43.886465Z"}}